Погода в Новом Мансуркине

Россия / Самарская область     53°52′35″N   51°51′23″E
темп.,
°C
ветер,
м/с
пор.,
м/с
влажн.,
%
обл.,
%
осадки,
мм/ч
давл.,
гПа
погр.,
м
11 мая, вт
вт1101:00+15в225899 0.0 102016
04:00+14в2261100 0.0 102213
07:00+17вюв235830 0.0 1023105
10:00+22ююв344240 0.0 1024809
13:00+24ююв343898 0.0 10251836
16:00+24ююв353791 0.0 10252176
19:00+20в3555100 0.0 102587
22:00+19в1156100 0.0 102611
12 мая, ср
ср1201:00+18юв115890 0.0 102611
04:00+15вюв1163100 0.0 102711
07:00+18в2362100 0.0 1027127
10:00+22вюв454667 0.0 1027941
13:00+24юв56395 0.0 10272445
16:00+24юв5634100 0.0 10272126
19:00+20ю345579 0.0 102782
22:00+16вюв225775 0.0 102711
13 мая, чт
чт1301:00+16вюв226099 0.0 102711
04:00+14вюв226084 0.0 102726
07:00+16вюв385972 0.0 1028260
10:00+21юв584359 0.0 1027738
13:00+24юв67345 0.0 10261611
16:00+24ююв57335 0.0 10261759
19:00+21юв37522 0.0 1025158
22:00+17юв345592 0.0 102552
14 мая, пт
пт1401:00+15вюв33559 0.0 102529
04:00+14вюв355886 0.0 102574
07:00+17юв310589 0.0 1026264
10:00+23ююв68435 0.0 1025585
13:00+26ю67335 0.0 10241190
16:00+27ю57325 0.0 10241663
19:00+22ю374884 0.0 1024140
22:00+18ююв33475 0.0 102420
15 мая, сб
сб1501:00+16ююв22512 0.0 102414
04:00+15ююв22525 0.0 102411
07:00+18юв26555 0.0 1024166
10:00+24ю57415 0.0 1023532
13:00+27ю5632100 0.0 10221519
16:00+27ю452956 0.0 10211964
19:00+24ююв33453 0.0 102144
22:00+19ююв22430 0.0 102012